Location: Kaseke
(18.0171°S, 31.0526°E)
Time: 12:39:37
(UTC+00:00)

Aurora 2 Rocket - Pass Details

Date: 14 July 2020
Orbit: 390 x 1744 km, 25.0° (Epoch: 07 August)

Event Time Altitude Azimuth Distance (km) Brightness Sun altitude
Exits shadow 03:15:01 23° 244° (WSW) 2,689 5.2 -17.0°
Maximum altitude 03:21:03 60° 173° (S) 1,387 4.2 -15.7°
Drops below altitude 10° 03:27:44 10° 93° (E) 2,688 7.0 -14.2°
Sets 03:30:00 0° 89° (E) 3,447 7.9 -13.6°
